リニア彗星

C/2002 T7 ( LINEAR )

English version
Home page
Total 6,336 html files since Dec. 4, 1995
Updated on May 8, 2006

---------------------------------------------------------------------

・ プロフィール

発見日 2002年10月14日
発見光度 17.5等
発見者 Lincoln Laboratory Near-Earth Asteroid Research project

・ 写真集

・ 軌道要素

Epoch 2004 Apr. 25.0 TT = JDT 2453120.5
T 2004 Apr. 23.06126 TT                                 MPC
q   0.6145994            (2000.0)            P               Q
z  -0.0009123      Peri.  157.73587     +0.43443116     -0.83758500
 +/-0.0000018      Node    94.85886     -0.86836205     -0.29181469
e   1.0005607      Incl.  160.58329     -0.23920056     -0.46183932
>From 3825 observations 2002 Oct. 12-2004 June 11, mean residual 0".53.  Non-
   gravitational parameters A1 = -0.19 +/- 0.02, A2 = +0.3826 +/- 0.0062.

・ 星図

・ 光度変化

        m1 = 4.5 + 5 logΔ + 10.0 log r  [    ,-180]  (              〜2003年10月26日)
        m1 = 3.4 + 5 logΔ + 12.2 log r  [-180, -80]  (2003年10月26日〜2004年 2月 3日)
        m1 = 4.9 + 5 logΔ +  5.0 log r  [ -80,   0]  (2004年 2月 3日〜2004年 4月23日)
        m1 = 7.5 + 5 logΔ + 16.5 log r  [   0,  25]  (2004年 4月23日〜2004年 5月18日)
        m1 = 4.8 + 5 logΔ - 15   log r  [  25,  34]  (2004年 5月18日〜2004年 5月27日)
        m1 = 5.5 + 5 logΔ + 10.0 log r  [  34,    ]  (2004年 5月27日〜              )

        ※ 緑色の曲線は、m1 = 4.5 + 5 logΔ + 10.0 log r の光度曲線です。
        ※ 灰色の曲線は、m1 = 4.9 + 5 logΔ + 5.0 log r の光度曲線です。

---------------------------------------------------------------------

軌道要素はM.P.E.C. 2004-L38に掲載されたものです。
星図は StellaNavigator Ver.2.0 for Windows (アストロアーツ 編著 / アスキー出版局刊) で作成したものです。
光度グラフはComet for Windowsで作成したものです。

---------------------------------------------------------------------

Copyright(C) 1995-2008 Seiichi Yoshida (comet@aerith.net). All rights reserved.